EW7431 Weather Reports


time (UTC)temp
C
wind
direction
speed
KPH
gust
KPH
rain 1hr
cm
rain 24hr
cm
rain mn
cm
humidity
%
barometer
mb
20260510104512 10 178 0.0 3.2 0.00 0.23 0.00 94 1012.3
20260510103010 10 211 0.0 3.2 0.00 0.23 0.00 94 1012.2
20260510101505 10 211 0.0 3.2 0.00 0.23 0.00 94 1012.6
20260510100007 10 165 0.0 1.6 0.00 0.23 0.00 94 1012.2
20260510094509 10 217 0.0 3.2 0.00 0.23 0.00 94 1012.0
20260510093020 10 151 0.0 1.6 0.00 0.23 0.00 94 1011.7
20260510091516 10 151 1.6 3.2 0.00 0.23 0.00 94 1011.7
20260510090012 10 140 0.0 1.6 0.00 0.23 0.00 94 1011.7
20260510084511 10 140 0.0 1.6 0.00 0.23 0.00 94 1011.9
20260510083008 10 140 0.0 1.6 0.00 0.23 0.00 94 1011.6
20260510081507 10 140 0.0 0.0 0.00 0.23 0.00 94 1012.0
20260510080004 10 140 0.0 3.2 0.00 0.23 0.00 94 1011.8
20260510074521 10 269 0.0 4.8 0.00 0.23 0.00 94 1012.1
20260510073015 10 140 1.6 9.7 0.00 0.23 0.00 93 1012.2
20260510071512 10 229 1.6 20.9 0.00 0.23 0.00 93 1011.8
20260510070011 10 218 0.0 1.6 0.00 0.23 0.00 93 1011.2
20260510064516 10 218 0.0 1.6 0.00 0.23 0.00 93 1011.5
20260510063010 10 140 0.0 3.2 0.00 0.23 0.00 93 1011.4
20260510061508 10 140 0.0 3.2 0.00 0.23 0.00 93 1011.7
20260510060022 10 237 0.0 4.8 0.00 0.23 0.00 93 1011.9
20260510054518 10 210 0.0 1.6 0.00 0.23 0.00 93 1011.3
20260510053015 11 210 0.0 0.0 0.00 0.23 0.00 93 1011.2
20260510051527 11 210 0.0 1.6 0.00 0.23 0.00 93 1011.3
20260510050020 11 210 0.0 1.6 0.00 0.23 0.00 93 1011.3
20260510044515 11 210 0.0 0.0 0.00 0.23 0.00 93 1011.4
20260510043012 10 210 0.0 1.6 0.00 0.23 0.00 93 1011.5
20260510041519 10 210 0.0 1.6 0.00 0.23 0.00 93 1011.6
20260510040022 10 210 0.0 0.0 0.00 0.23 0.00 92 1011.4
20260510034533 10 210 0.0 1.6 0.00 0.23 0.23 91 1011.5
20260510033024 10 210 0.0 1.6 0.00 0.23 0.23 92 1011.5
20260510031524 10 210 0.0 0.0 0.00 0.23 0.23 92 1011.5
20260510030008 10 210 0.0 3.2 0.00 0.23 0.23 91 1011.5
20260510024504 11 194 0.0 0.0 0.00 0.23 0.23 91 1011.5
20260510023012 11 194 0.0 1.6 0.00 0.23 0.23 90 1011.4
20260510021518 11 194 0.0 1.6 0.00 0.23 0.23 91 1011.3
20260510020007 11 194 0.0 1.6 0.00 0.23 0.23 90 1011.2
20260510014507 12 159 0.0 1.6 0.00 0.23 0.23 91 1011.3
20260510013006 12 150 0.0 3.2 0.00 0.23 0.23 91 1011.2
20260510011504 11 205 0.0 3.2 0.00 0.23 0.23 91 1011.1
20260510010017 12 244 0.0 1.6 0.00 0.23 0.23 89 1011.0
20260510004519 12 205 0.0 1.6 0.00 0.23 0.23 89 1010.7
20260510003014 12 128 0.0 3.2 0.00 0.23 0.23 88 1010.6
20260510001510 12 128 0.0 1.6 0.00 0.23 0.23 88 1010.3
20260510000015 13 128 0.0 3.2 0.00 0.23 0.23 87 1010.2
20260509234506 13 128 0.0 3.2 0.00 0.23 0.23 86 1010.3
20260509233022 13 121 0.0 3.2 0.00 0.23 0.23 84 1010.3
20260509231519 13 120 0.0 3.2 0.00 0.23 0.23 83 1010.3
20260509230020 13 120 0.0 3.2 0.00 0.23 0.23 81 1010.3
20260509224514 13 117 0.0 3.2 0.00 0.23 0.23 81 1010.1
20260509223012 13 117 0.0 3.2 0.00 0.23 0.23 82 1010.0
20260509221512 13 223 0.0 3.2 0.00 0.23 0.23 81 1010.3
20260509220007 13 269 1.6 6.4 0.00 0.23 0.23 83 1010.2
20260509214523 13 266 6.4 11.3 0.00 0.23 0.23 84 1010.3
20260509213020 13 281 0.0 4.8 0.00 0.23 0.23 87 1010.1
20260509211519 13 272 0.0 4.8 0.00 0.23 0.23 85 1010.4
20260509210004 13 276 3.2 8.0 0.00 0.23 0.23 86 1010.6
20260509204501 13 296 3.2 12.9 0.00 0.23 0.23 84 1010.9
20260509203008 13 277 4.8 11.3 0.00 0.23 0.23 86 1010.8
20260509201505 13 273 0.0 4.8 0.00 0.23 0.23 87 1010.7
20260509200006 12 291 0.0 3.2 0.00 0.23 0.23 87 1010.8
20260509194503 12 291 0.0 4.8 0.03 0.23 0.23 90 1011.0
20260509193011 12 255 0.0 1.6 0.08 0.23 0.23 89 1011.1
20260509191506 12 255 0.0 0.0 0.08 0.23 0.23 90 1011.3
20260509190006 12 255 1.6 4.8 0.10 0.23 0.23 89 1011.8
20260509184513 12 284 0.0 1.6 0.08 0.20 0.20 89 1012.1
20260509183008 12 284 0.0 1.6 0.03 0.15 0.15 88 1012.1
20260509181503 12 284 0.0 3.2 0.03 0.15 0.15 88 1012.3
20260509180012 12 246 0.0 1.6 0.00 0.13 0.13 87 1012.4
20260509174510 12 261 4.8 9.7 0.03 0.13 0.13 88 1012.2
20260509173008 12 288 3.2 6.4 0.08 0.13 0.13 89 1012.1
20260509171513 12 257 0.0 4.8 0.10 0.13 0.13 88 1012.1
20260509170023 12 270 1.6 4.8 0.13 0.13 0.13 87 1011.6
20260509164504 12 292 1.6 9.7 0.10 0.10 0.10 86 1011.7
20260509163025 13 267 1.6 6.4 0.05 0.05 0.05 86 1012.1
20260509161515 13 246 1.6 6.4 0.03 0.03 0.03 84 1012.5
20260509160016 13 226 1.6 9.7 0.00 0.00 0.00 82 1012.5
20260509154516 13 275 0.0 6.4 0.00 0.00 0.00 82 1012.7
20260509153010 13 335 0.0 1.6 0.00 0.00 0.00 81 1012.7
20260509151509 13 309 0.0 4.8 0.00 0.00 0.00 80 1012.7
20260509150034 13 116 0.0 3.2 0.00 0.00 0.00 80 1012.5
20260509144531 13 113 0.0 3.2 0.00 0.00 0.00 81 1012.3
20260509143024 13 119 0.0 1.6 0.00 0.00 0.00 81 1012.2
20260509141521 13 119 0.0 3.2 0.00 0.00 0.00 81 1012.2
20260509140014 12 43 0.0 3.2 0.00 0.00 0.00 81 1012.0
20260509134511 12 99 0.0 3.2 0.00 0.00 0.00 80 1012.1
20260509133026 12 87 0.0 3.2 0.00 0.00 0.00 80 1012.0
20260509131531 12 131 0.0 3.2 0.00 0.00 0.00 79 1011.8
20260509130021 12 46 0.0 3.2 0.00 0.00 0.00 80 1011.9
20260509124523 12 125 0.0 3.2 0.00 0.00 0.00 80 1012.0
20260509123016 11 139 0.0 3.2 0.00 0.00 0.00 81 1012.0
20260509121523 11 151 0.0 1.6 0.00 0.00 0.00 80 1012.1
20260509120004 11 167 0.0 1.6 0.00 0.00 0.00 81 1012.1
20260509114502 11 167 0.0 1.6 0.00 0.00 0.00 80 1012.1
20260509113006 11 167 0.0 1.6 0.00 0.00 0.00 81 1012.2
20260509111504 10 136 0.0 3.2 0.00 0.00 0.00 82 1012.0
20260509110003 10 243 0.0 3.2 0.00 0.00 0.00 85 1011.8